Home   Weather   Maputo   Past weeks

Flag for Mozambique Past Weather in Maputo, Mozambique — Yesterday and Last 2 Weeks

Now
70 °F

Partly sunny.


Feels Like: 70 °F
Forecast: 71 / 88 °F
Wind: 13 mph from South

Location: Maputo / Mavalane

Current Time: Feb 27, 2017 at 6:37:53 am

Latest Report: Feb 27, 2017 at 6:00 am


Visibility: N/A

Pressure: 30.04 "Hg

Humidity: 78%

Dew Point: 63 °F

Location of MaputoLocation

Past Weather in Maputo — Graph

°F

Maputo Temperature Yesterday

Maximum temperature yesterday: 84 °F (at 10:00 am)
Minimum temperature yesterday: 72 °F (at 11:00 pm)
Average temperature yesterday: 78 °F

High & Low Weather Summary for the Past Weeks

 TemperatureHumidityPressure
High99 °F (Feb 12, 12:00 pm)94% (Feb 14, 12:00 am)30.15 "Hg (Feb 14, 12:00 am)
Low70 °F (Feb 23, 5:00 am)41% (Feb 14, 12:00 pm)29.74 "Hg (Feb 12, 3:00 pm)
Average80 °F77%29.93 "Hg
* Reported Feb 12 5:00 am — Feb 27 5:00 am, Maputo, Weather by CustomWeather, © 2017

Note: Actual official high and low records may vary slightly from our data, if they occured in-between our weather recording intervals... More about our weather records

Advertising

Maputo Weather History for the Previous 24 Hours

Scroll right to see more
 ConditionsComfort  
Time TempWeatherWind HumidityBarometerVisibility
5:00 am
Mon, Feb 27
70 °FPassing clouds.13 mph83%30.01 "HgN/A
4:00 am72 °FPassing clouds.12 mph78%30.01 "HgN/A
3:00 am72 °FPassing clouds.10 mph78%30.04 "HgN/A
2:00 am72 °FPassing clouds.13 mph78%30.04 "HgN/A
1:00 am72 °FPassing clouds.12 mph78%30.04 "HgN/A
11:00 pm
Sun, Feb 26
72 °FPassing clouds.14 mph83%30.04 "HgN/A
10:00 pm73 °FPassing clouds.13 mph78%30.04 "HgN/A
8:00 pm73 °FPassing clouds.15 mph78%30.01 "HgN/A
7:00 pm77 °FPassing clouds.15 mph69%29.98 "HgN/A
6:00 pm79 °FScattered clouds.13 mph65%29.98 "HgN/A
5:00 pm81 °FScattered clouds.13 mph62%29.95 "HgN/A
4:00 pm81 °FBroken clouds.14 mph66%29.95 "HgN/A
3:00 pm82 °FBroken clouds.15 mph62%29.95 "HgN/A
2:00 pm81 °FBroken clouds.13 mph70%29.98 "HgN/A
1:00 pm81 °FBroken clouds.17 mph66%29.98 "HgN/A
11:00 am82 °FBroken clouds.17 mph66%29.98 "HgN/A
10:00 am84 °FPartly sunny.15 mph66%29.98 "HgN/A
9:00 am77 °FMore clouds than sun.15 mph83%29.98 "HgN/A
8:00 am75 °FBroken clouds.15 mph89%29.98 "HgN/A
7:00 am73 °FBroken clouds.13 mph94%29.95 "HgN/A
Weather by CustomWeather, © 2017

See weather overviewHow to use our weather pages